FW9105 Weather Reports


time (UTC)temp
C
wind
direction
speed
KPH
gust
KPH
rain 1hr
cm
rain 24hr
cm
rain mn
cm
humidity
%
barometer
mb
20260906103004 19 18 3.2 4.8 0.00 0.00 0.00 97 1006.7
20260906100004 19 355 3.2 6.4 0.00 0.00 0.00 97 1006.7
20260906094501 19 9 4.8 6.4 0.00 0.00 0.00 97 1006.8
20260906093001 19 348 1.6 6.4 0.00 0.00 0.00 96 1006.7
20260906091502 19 360 3.2 4.8 0.00 0.00 0.00 96 1006.6
20260906090004 19 360 3.2 4.8 0.00 0.00 0.00 95 1006.7
20260906084503 20 18 3.2 8.0 0.00 0.00 0.00 93 1006.7
20260906083004 20 229 0.0 1.6 0.00 0.00 0.00 90 1006.7
20260906074501 20 360 0.0 1.6 0.00 0.00 0.00 92 1006.4
20260906073001 20 360 3.2 4.8 0.00 0.00 0.00 94 1006.2
20260906070003 21 360 4.8 6.4 0.00 0.00 0.00 87 1006.6
20260906064502 20 5 4.8 4.8 0.00 0.00 0.00 90 1006.5
20260906063001 20 355 3.2 6.4 0.00 0.00 0.00 94 1006.8
20260906060005 20 355 1.6 3.2 0.00 0.00 0.00 93 1007.2
20260906054502 20 355 3.2 6.4 0.00 0.00 0.00 95 1007.4
20260906053001 20 360 3.2 4.8 0.00 0.00 0.00 95 1007.6
20260906050006 20 5 3.2 4.8 0.00 0.00 0.00 95 1007.5
20260906044502 20 335 1.6 4.8 0.00 0.00 0.00 94 1008.0
20260906040004 20 349 4.8 6.4 0.00 0.00 0.00 96 1007.7
20260906034502 20 349 4.8 8.0 0.00 0.00 0.00 95 1008.1
20260906033005 21 340 1.6 4.8 0.00 0.00 0.00 93 1008.0
20260906031502 21 348 1.6 3.2 0.00 0.00 0.00 91 1008.1
20260906024502 22 183 1.6 3.2 0.00 0.00 0.00 86 1008.2
20260906023004 22 183 1.6 4.8 0.00 0.00 0.00 89 1008.1
20260906021502 22 342 0.0 3.2 0.00 0.00 0.00 88 1008.1
20260906013003 22 178 1.6 1.6 0.00 0.00 0.00 86 1007.9
20260906011504 22 178 1.6 3.2 0.00 0.00 0.00 87 1007.7
20260906010004 22 169 0.0 1.6 0.00 0.00 0.00 84 1007.3
20260906004503 22 163 1.6 4.8 0.00 0.00 0.00 90 1006.9
20260906003002 21 5 3.2 4.8 0.00 0.00 0.00 92 1006.6
20260906001503 22 5 3.2 4.8 0.00 0.00 0.00 93 1006.2
20260905234503 23 350 0.0 3.2 0.00 0.00 0.00 89 1006.6
20260905233003 23 350 0.0 3.2 0.00 0.00 0.00 86 1006.8
20260905231503 23 350 0.0 1.6 0.00 0.00 0.00 79 1006.9
20260905230004 23 350 1.6 4.8 0.00 0.00 0.00 89 1006.7
20260905223003 24 338 1.6 4.8 0.00 0.00 0.00 82 1006.3
20260905221501 25 182 0.0 6.4 0.00 0.00 0.00 81 1006.9
20260905220005 25 193 0.0 6.4 0.00 0.00 0.00 78 1006.8
20260905214502 25 211 0.0 0.0 0.00 0.00 0.00 77 1006.7
20260905213002 24 300 0.0 0.0 0.00 0.00 0.00 77 1006.9
20260905210004 25 5 4.8 9.7 0.00 0.00 0.00 78 1007.2
20260905204502 26 19 4.8 8.0 0.00 0.00 0.00 70 1007.2
20260905203002 27 15 4.8 9.7 0.00 0.00 0.00 68 1007.4
20260905200004 31 13 4.8 12.9 0.00 0.00 0.00 58 1007.0
20260905194504 32 360 0.0 3.2 0.00 0.00 0.00 59 1006.8
20260905193003 31 18 1.6 8.0 0.00 0.00 0.00 60 1006.8
20260905191501 31 53 3.2 6.4 0.00 0.00 0.00 60 1007.0
20260905190002 31 329 0.0 4.8 0.00 0.00 0.00 62 1007.1
20260905184502 31 5 3.2 6.4 0.00 0.00 0.00 66 1007.3
20260905183001 31 64 1.6 9.7 0.00 0.00 0.00 62 1007.5
20260905181501 31 300 1.6 4.8 0.00 0.00 0.00 63 1007.6
20260905180003 32 63 0.0 6.4 0.00 0.00 0.00 60 1008.0
20260905174501 31 250 1.6 3.2 0.00 0.00 0.00 61 1008.0
20260905173001 31 16 1.6 9.7 0.00 0.00 0.00 68 1008.1
20260905171502 31 34 0.0 4.8 0.00 0.00 0.00 64 1008.3
20260905170004 30 16 1.6 4.8 0.00 0.00 0.00 68 1008.3
20260905164503 30 10 3.2 8.0 0.00 0.00 0.00 70 1008.5
20260905163003 30 29 3.2 8.0 0.00 0.00 0.00 67 1008.9
20260905161503 30 12 1.6 6.4 0.00 0.00 0.00 71 1009.1
20260905160004 30 40 1.6 6.4 0.00 0.00 0.00 72 1009.2
20260905154501 28 355 3.2 9.7 0.00 0.00 0.00 72 1009.3
20260905153001 28 22 3.2 8.0 0.00 0.00 0.00 73 1009.4
20260905151501 28 5 1.6 6.4 0.00 0.00 0.00 74 1009.5
20260905150001 28 30 1.6 8.0 0.00 0.00 0.00 76 1009.3
20260905144502 27 5 1.6 3.2 0.00 0.00 0.00 77 1009.4
20260905143001 27 351 3.2 8.0 0.00 0.00 0.00 78 1009.7
20260905141501 27 24 0.0 3.2 0.00 0.00 0.00 80 1009.6
20260905133002 25 13 3.2 8.0 0.00 0.00 0.00 84 1009.9
20260905131502 25 5 0.0 0.0 0.00 0.00 0.00 84 1009.8
20260905124501 22 5 1.6 4.8 0.00 0.00 0.00 89 1009.6
20260905123000 22 5 3.2 6.4 0.00 0.00 0.00 90 1009.6
20260905121501 21 348 3.2 6.4 0.00 0.00 0.00 92 1009.6
20260905120003 21 355 3.2 6.4 0.00 0.00 0.00 92 1009.4
20260905114501 21 355 1.6 3.2 0.00 0.00 0.00 90 1009.4
20260905113003 21 355 0.0 3.2 0.00 0.00 0.00 89 1009.2
20260905111500 22 355 0.0 3.2 0.00 0.00 0.00 86 1009.0